Tracking 19146 objects as of 25-Apr-2018
HD Live streaming from Space Station
objects crossing your sky now

BREEZE-M DEB

Track BREEZE-M DEB now!
10-day predictions


NORAD ID: 34254
Int'l Code: 2006-006BV
Perigee: 442.2 km
Apogee: 12,028.7 km
Inclination: 51.6 °
Period: 234.8 minutes
Semi major axis: 12606 km
RCS: 0.033 m2 (small)
Launch date: February 28, 2006
Source: Commonwealth of Independent States (former USSR) (CIS)
Launch site: TYURATAM MISSILE AND SPACE COMPLEX (TTMTR)

Note: This is SATELLITE DEBRIS
aabbcc
Your satellite tracking list
Your tracking list is empty




NASA's NSSDC Master Catalog

Two Line Element Set (TLE):
1 34254U 06006BV  18113.28004978  .00004195  00000-0  29912-2 0  9996
2 34254  51.5987 153.9136 4595454 136.0879 271.3964  6.13355000205218
Source of the keplerian elements: AFSPC